When you browse on this site, cookies collect data to enhance your experience and personalize the content and advertising you see.
Visit our Privacy Policy to learn more. By continuing to use the site, you agree to this use of cookies and data.
  • In Portugal
  • List of Countries
  • For 7 days
  • Water Temperature
  • Satellite Maps
  • Weather Map
  • Weather Widgets
  • user-avatar
    Login

    Hourly Weather Branno

    Today, 26 June, Wednesday

    Time Temperature Precipitation Wind Pressure Humidity
    00:00 +25°C° 0 mm 3 mps 758 mmHg 82%
    01:00 +25°C° 0 mm 2 mps 758 mmHg 82%
    02:00 +24°C° 0 mm 3 mps 757 mmHg 82%
    03:00 +24°C° 0 mm 3 mps 757 mmHg 83%
    04:00 +24°C° 0 mm 3 mps 757 mmHg 84%
    05:00 +25°C° 0 mm 3 mps 757 mmHg 79%
    06:00 +27°C° 0 mm 3 mps 757 mmHg 75%
    07:00 +28°C° 0 mm 4 mps 757 mmHg 71%
    08:00 +29°C° 0 mm 4 mps 757 mmHg 66%
    09:00 +32°C° 0 mm 4 mps 757 mmHg 62%
    10:00 +33°C° 0 mm 4 mps 756 mmHg 58%
    11:00 +34°C° 0 mm 4 mps 756 mmHg 56%
    12:00 +34°C° 0 mm 4 mps 756 mmHg 54%
    13:00 +35°C° 0 mm 5 mps 756 mmHg 52%
    14:00 +35°C° 0 mm 4 mps 755 mmHg 51%
    15:00 +35°C° 0 mm 4 mps 755 mmHg 50%
    16:00 +36°C° 0 mm 4 mps 754 mmHg 50%
    17:00 +34°C° 0 mm 4 mps 754 mmHg 55%
    18:00 +33°C° 0 mm 3 mps 754 mmHg 60%
    19:00 +31°C° 0 mm 3 mps 753 mmHg 65%
    20:00 +29°C° 0.3 mm 4 mps 753 mmHg 69%
    21:00 +28°C° 0.3 mm 4 mps 753 mmHg 73%
    22:00 +27°C° 0.3 mm 4 mps 753 mmHg 77%
    23:00 +25°C° 0.3 mm 4 mps 754 mmHg 82%

    Tomorrow, 27 June, Thursday

    Time Temperature Precipitation Wind Pressure Humidity
    00:00 +23°C° 0.3 mm 4 mps 754 mmHg 87%
    01:00 +22°C° 0.3 mm 4 mps 754 mmHg 92%
    02:00 +21°C° 0 mm 4 mps 754 mmHg 92%
    03:00 +20°C° 0 mm 5 mps 754 mmHg 92%
    04:00 +19°C° 0 mm 5 mps 754 mmHg 93%
    05:00 +19°C° 0 mm 5 mps 754 mmHg 89%
    06:00 +17°C° 0 mm 6 mps 754 mmHg 84%
    07:00 +17°C° 0 mm 7 mps 755 mmHg 80%
    08:00 +17°C° 0 mm 7 mps 755 mmHg 73%
    09:00 +18°C° 0 mm 7 mps 755 mmHg 66%
    10:00 +20°C° 0 mm 7 mps 755 mmHg 58%
    11:00 +21°C° 0 mm 7 mps 755 mmHg 57%
    12:00 +22°C° 0 mm 7 mps 755 mmHg 57%
    13:00 +22°C° 0 mm 7 mps 755 mmHg 56%
    14:00 +22°C° 0 mm 7 mps 755 mmHg 57%
    15:00 +22°C° 0 mm 7 mps 755 mmHg 58%
    16:00 +22°C° 0 mm 7 mps 755 mmHg 60%
    17:00 +22°C° 0 mm 6 mps 755 mmHg 64%
    18:00 +21°C° 0 mm 6 mps 755 mmHg 69%
    19:00 +20°C° 0 mm 5 mps 755 mmHg 73%
    20:00 +19°C° 0 mm 5 mps 755 mmHg 77%
    21:00 +18°C° 0 mm 4 mps 756 mmHg 82%
    22:00 +17°C° 0 mm 4 mps 756 mmHg 86%
    23:00 +16°C° 0 mm 3 mps 756 mmHg 89%

    Day after tomorrow, 28 June, Friday

    Time Temperature Precipitation Wind Pressure Humidity
    00:00 +15°C° 0 mm 2 mps 756 mmHg 93%
    01:00 +14°C° 0 mm 2 mps 757 mmHg 96%
    02:00 +14°C° 0 mm 2 mps 756 mmHg 96%
    03:00 +14°C° 0 mm 1 mps 756 mmHg 96%
    04:00 +14°C° 0 mm 1 mps 756 mmHg 96%
    05:00 +15°C° 0 mm 2 mps 756 mmHg 89%
    06:00 +17°C° 0 mm 2 mps 756 mmHg 83%
    07:00 +19°C° 0 mm 2 mps 756 mmHg 76%
    08:00 +20°C° 0.1 mm 3 mps 756 mmHg 70%
    09:00 +21°C° 0.1 mm 3 mps 756 mmHg 64%
    10:00 +22°C° 0.1 mm 4 mps 756 mmHg 57%
    11:00 +23°C° 0.1 mm 4 mps 756 mmHg 55%
    12:00 +23°C° 0.1 mm 5 mps 756 mmHg 53%
    13:00 +25°C° 0.1 mm 5 mps 756 mmHg 50%
    14:00 +25°C° 0 mm 5 mps 756 mmHg 49%
    15:00 +25°C° 0 mm 5 mps 756 mmHg 49%
    16:00 +24°C° 0 mm 6 mps 756 mmHg 48%
    17:00 +22°C° 0 mm 5 mps 756 mmHg 53%
    18:00 +21°C° 0 mm 4 mps 756 mmHg 57%
    19:00 +20°C° 0 mm 4 mps 757 mmHg 62%
    20:00 +18°C° 0 mm 3 mps 757 mmHg 65%
    21:00 +16°C° 0 mm 2 mps 757 mmHg 69%
    22:00 +15°C° 0 mm 2 mps 758 mmHg 72%
    23:00 +14°C° 0 mm 1 mps 758 mmHg 73%

    29 June, Saturday

    Time Temperature Precipitation Wind Pressure Humidity
    00:00 +13°C° 0 mm 1 mps 758 mmHg 75%
    01:00 +13°C° 0 mm 1 mps 758 mmHg 76%
    02:00 +13°C° 0 mm 1 mps 758 mmHg 77%
    03:00 +13°C° 0 mm 1 mps 758 mmHg 77%
    04:00 +12°C° 0 mm 1 mps 758 mmHg 77%
    05:00 +14°C° 0 mm 1 mps 758 mmHg 73%
    06:00 +16°C° 0 mm 2 mps 758 mmHg 68%
    07:00 +18°C° 0 mm 2 mps 758 mmHg 64%
    08:00 +20°C° 0 mm 3 mps 758 mmHg 59%
    09:00 +21°C° 0 mm 3 mps 758 mmHg 54%
    10:00 +23°C° 0 mm 4 mps 758 mmHg 49%
    11:00 +23°C° 0 mm 4 mps 757 mmHg 47%
    12:00 +25°C° 0 mm 4 mps 757 mmHg 45%
    13:00 +26°C° 0 mm 4 mps 756 mmHg 43%
    14:00 +26°C° 0 mm 4 mps 756 mmHg 43%
    15:00 +26°C° 0 mm 4 mps 756 mmHg 43%
    16:00 +26°C° 0 mm 3 mps 756 mmHg 43%
    17:00 +25°C° 0 mm 3 mps 756 mmHg 49%
    18:00 +24°C° 0 mm 2 mps 755 mmHg 54%
    19:00 +23°C° 0 mm 2 mps 755 mmHg 59%
    20:00 +21°C° 0 mm 2 mps 755 mmHg 59%
    21:00 +20°C° 0 mm 2 mps 755 mmHg 58%
    22:00 +19°C° 0 mm 2 mps 755 mmHg 58%
    23:00 +18°C° 0 mm 2 mps 755 mmHg 60%

    30 June, Sunday

    Time Temperature Precipitation Wind Pressure Humidity
    00:00 +17°C° 0 mm 2 mps 755 mmHg 62%
    01:00 +17°C° 0 mm 2 mps 755 mmHg 64%
    02:00 +16°C° 0 mm 2 mps 755 mmHg 66%
    03:00 +16°C° 0 mm 2 mps 755 mmHg 68%
    04:00 +16°C° 0 mm 2 mps 755 mmHg 70%
    05:00 +18°C° 0 mm 3 mps 755 mmHg 68%
    06:00 +20°C° 0 mm 3 mps 755 mmHg 66%
    07:00 +21°C° 0 mm 3 mps 755 mmHg 63%
    08:00 +24°C° 0 mm 3 mps 754 mmHg 58%
    09:00 +26°C° 0 mm 3 mps 754 mmHg 52%
    10:00 +28°C° 0 mm 4 mps 754 mmHg 47%
    11:00 +29°C° 0 mm 4 mps 754 mmHg 45%
    12:00 +30°C° 0 mm 5 mps 753 mmHg 44%
    13:00 +32°C° 0 mm 5 mps 753 mmHg 42%
    14:00 +32°C° 0 mm 5 mps 752 mmHg 43%
    15:00 +32°C° 0 mm 5 mps 752 mmHg 44%
    16:00 +32°C° 0 mm 5 mps 752 mmHg 45%
    17:00 +30°C° 0 mm 5 mps 751 mmHg 50%
    18:00 +28°C° 0 mm 5 mps 751 mmHg 56%
    19:00 +27°C° 0 mm 5 mps 751 mmHg 61%
    20:00 +26°C° 0 mm 5 mps 751 mmHg 63%
    21:00 +25°C° 0 mm 5 mps 751 mmHg 65%
    22:00 +23°C° 0 mm 5 mps 751 mmHg 67%
    23:00 +23°C° 0 mm 5 mps 751 mmHg 69%

    1 July, Monday

    Time Temperature Precipitation Wind Pressure Humidity
    00:00 +22°C° 0 mm 5 mps 751 mmHg 72%
    01:00 +22°C° 0 mm 4 mps 751 mmHg 74%
    02:00 +21°C° 0 mm 4 mps 751 mmHg 79%
    03:00 +20°C° 0 mm 3 mps 751 mmHg 84%
    04:00 +19°C° 0 mm 2 mps 751 mmHg 89%
    05:00 +20°C° 0 mm 2 mps 752 mmHg 82%
    06:00 +21°C° 0 mm 3 mps 752 mmHg 76%
    07:00 +22°C° 0 mm 3 mps 752 mmHg 69%
    08:00 +23°C° 0 mm 4 mps 752 mmHg 64%
    09:00 +25°C° 0 mm 4 mps 752 mmHg 59%
    10:00 +25°C° 0 mm 4 mps 752 mmHg 54%
    11:00 +26°C° 0 mm 5 mps 751 mmHg 54%
    12:00 +27°C° 0 mm 5 mps 751 mmHg 54%
    13:00 +28°C° 0 mm 5 mps 751 mmHg 53%
    14:00 +28°C° 0 mm 4 mps 750 mmHg 54%
    15:00 +28°C° 0 mm 4 mps 750 mmHg 54%
    16:00 +28°C° 0 mm 4 mps 749 mmHg 54%
    17:00 +27°C° 0 mm 3 mps 749 mmHg 59%
    18:00 +26°C° 0 mm 2 mps 749 mmHg 63%
    19:00 +25°C° 0 mm 2 mps 749 mmHg 67%
    20:00 +23°C° 0.1 mm 2 mps 749 mmHg 68%
    21:00 +21°C° 0.1 mm 2 mps 749 mmHg 68%
    22:00 +20°C° 0.1 mm 2 mps 749 mmHg 69%
    23:00 +19°C° 0 mm 3 mps 749 mmHg 70%
    Show more